Time,TemperatureF,DewpointF,PressureIn,WindDirection,WindDirectionDegrees,WindSpeedMPH,WindSpeedGustMPH,Humidity,HourlyPrecipIn,Conditions,Clouds,dailyrainin,SoftwareType,DateUTC
2013-09-01 00:03:00,82.2,75.4,29.73,WSW,239,4.6,4.6,80,0.00,CLR,,0.00,WeatherDisplay:10.37,2013-09-01 05:03:00,
2013-09-01 00:08:00,82.1,75.3,29.74,SW,235,6.9,6.9,80,0.00,CLR,,0.00,WeatherDisplay:10.37,2013-09-01 05:08:00,
2013-09-01 00:13:00,82.1,75.3,29.74,WSW,254,3.5,3.5,80,0.00,CLR,,0.00,WeatherDisplay:10.37,2013-09-01 05:13:00,
2013-09-01 00:18:00,82.1,75.3,29.74,SW,221,3.5,3.5,80,0.00,CLR,,0.00,WeatherDisplay:10.37,2013-09-01 05:18:00,
2013-09-01 00:23:00,82.0,75.2,29.73,SW,234,3.5,3.5,80,0.00,CLR,,0.00,WeatherDisplay:10.37,2013-09-01 05:23:00,
2013-09-01 00:28:00,81.9,75.1,29.73,SSW,213,3.5,3.5,80,0.00,CLR,,0.00,WeatherDisplay:10.37,2013-09-01 05:28:00,
2013-09-01 00:33:00,81.9,75.1,29.73,SW,232,4.6,4.6,80,0.00,CLR,,0.00,WeatherDisplay:10.37,2013-09-01 05:33:00,
2013-09-01 00:38:00,81.8,75.0,29.73,SSW,213,5.8,5.8,80,0.00,CLR,,0.00,WeatherDisplay:10.37,2013-09-01 05:38:00,
2013-09-01 00:43:00,81.7,74.9,29.73,WSW,255,3.5,3.5,80,0.00,CLR,,0.00,WeatherDisplay:10.37,2013-09-01 05:43:00,
2013-09-01 00:48:00,81.7,74.9,29.73,SW,225,3.5,3.5,80,0.00,CLR,,0.00,WeatherDisplay:10.37,2013-09-01 05:48:00,
2013-09-01 00:53:00,81.6,74.8,29.73,SW,219,5.8,5.8,80,0.00,CLR,,0.00,WeatherDisplay:10.37,2013-09-01 05:53:00,
2013-09-01 00:58:00,81.5,74.7,29.73,WSW,250,5.8,5.8,80,0.00,CLR,,0.00,WeatherDisplay:10.37,2013-09-01 05:58:00,
2013-09-01 01:03:00,81.4,74.6,29.73,SSW,209,5.8,5.8,80,0.00,CLR,,0.00,WeatherDisplay:10.37,2013-09-01 06:03:00,
2013-09-01 01:08:00,81.5,74.7,29.73,SW,221,4.6,4.6,80,0.00,CLR,,0.00,WeatherDisplay:10.37,2013-09-01 06:08:00,
2013-09-01 01:13:00,81.5,74.7,29.73,SW,233,3.5,3.5,80,0.00,CLR,,0.00,WeatherDisplay:10.37,2013-09-01 06:13:00,
2013-09-01 01:18:00,81.4,74.6,29.73,West,268,5.8,5.8,80,0.00,CLR,,0.00,WeatherDisplay:10.37,2013-09-01 06:18:00,
2013-09-01 01:23:00,81.4,74.6,29.73,WSW,238,5.8,5.8,80,0.00,CLR,,0.00,WeatherDisplay:10.37,2013-09-01 06:23:00,
2013-09-01 01:28:00,81.3,74.2,29.73,SW,231,8.1,8.1,79,0.00,CLR,,0.00,WeatherDisplay:10.37,2013-09-01 06:28:00,
2013-09-01 01:33:00,81.3,74.2,29.73,WSW,237,4.6,4.6,79,0.00,CLR,,0.00,WeatherDisplay:10.37,2013-09-01 06:33:00,
2013-09-01 01:38:00,81.3,74.2,29.72,SSW,208,6.0,6.0,79,0.00,CLR,,0.00,WeatherDisplay:10.37,2013-09-01 06:38:00,
2013-09-01 01:43:00,81.2,74.1,29.72,WSW,245,4.6,4.6,79,0.00,CLR,,0.00,WeatherDisplay:10.37,2013-09-01 06:43:00,
2013-09-01 01:48:00,81.1,74.0,29.72,SSW,201,5.8,5.8,79,0.00,CLR,,0.00,WeatherDisplay:10.37,2013-09-01 06:48:00,
2013-09-01 01:53:00,81.1,74.0,29.72,WSW,240,6.0,6.0,79,0.00,CLR,,0.00,WeatherDisplay:10.37,2013-09-01 06:53:00,
2013-09-01 01:58:00,81.0,73.9,29.72,WSW,244,6.9,6.9,79,0.00,CLR,,0.00,WeatherDisplay:10.37,2013-09-01 06:58:00,
2013-09-01 02:03:00,80.9,73.8,29.72,SSW,192,5.8,5.8,79,0.00,CLR,,0.00,WeatherDisplay:10.37,2013-09-01 07:03:00,
2013-09-01 02:08:00,80.9,73.8,29.72,SW,236,4.6,4.6,79,0.00,CLR,,0.00,WeatherDisplay:10.37,2013-09-01 07:08:00,
2013-09-01 02:13:00,80.7,73.6,29.72,West,260,4.6,4.6,79,0.00,CLR,,0.00,WeatherDisplay:10.37,2013-09-01 07:13:00,
2013-09-01 02:18:00,80.7,73.6,29.72,SW,219,5.0,5.0,79,0.00,CLR,,0.00,WeatherDisplay:10.37,2013-09-01 07:18:00,
2013-09-01 02:24:00,80.6,73.5,29.71,WSW,254,4.6,4.6,79,0.00,CLR,,0.00,WeatherDisplay:10.37,2013-09-01 07:24:00,
2013-09-01 02:29:00,80.5,73.8,29.71,SSW,213,5.8,5.8,80,0.00,CLR,,0.00,WeatherDisplay:10.37,2013-09-01 07:29:00,
2013-09-01 02:34:00,80.4,73.7,29.71,WSW,252,5.8,5.8,80,0.00,CLR,,0.00,WeatherDisplay:10.37,2013-09-01 07:34:00,
2013-09-01 02:39:00,80.3,73.6,29.71,WSW,245,5.0,5.0,80,0.00,CLR,,0.00,WeatherDisplay:10.37,2013-09-01 07:39:00,
2013-09-01 02:44:00,80.2,73.5,29.71,SW,219,6.9,6.9,80,0.00,CLR,,0.00,WeatherDisplay:10.37,2013-09-01 07:44:00,
2013-09-01 02:49:00,80.2,73.5,29.71,SSW,211,5.0,5.0,80,0.00,CLR,,0.00,WeatherDisplay:10.37,2013-09-01 07:49:00,
2013-09-01 02:54:00,80.2,73.5,29.71,SW,217,5.8,5.8,80,0.00,CLR,,0.00,WeatherDisplay:10.37,2013-09-01 07:54:00,
2013-09-01 02:59:00,80.2,73.5,29.71,SW,234,3.5,3.5,80,0.00,CLR,,0.00,WeatherDisplay:10.37,2013-09-01 07:59:00,
2013-09-01 03:04:00,80.1,73.4,29.70,SW,225,6.9,6.9,80,0.00,CLR,,0.00,WeatherDisplay:10.37,2013-09-01 08:04:00,
2013-09-01 03:09:00,80.1,73.4,29.70,WSW,254,11.5,11.5,80,0.00,CLR,,0.00,WeatherDisplay:10.37,2013-09-01 08:09:00,
2013-09-01 03:14:00,80.0,73.3,29.70,SW,226,8.1,8.1,80,0.00,CLR,,0.00,WeatherDisplay:10.37,2013-09-01 08:14:00,
2013-09-01 03:19:00,80.0,73.3,29.70,SW,236,6.9,6.9,80,0.00,CLR,,0.00,WeatherDisplay:10.37,2013-09-01 08:19:00,
2013-09-01 03:24:00,79.9,73.2,29.70,WSW,240,4.6,4.6,80,0.00,CLR,,0.00,WeatherDisplay:10.37,2013-09-01 08:24:00,
2013-09-01 03:29:00,79.8,73.1,29.70,SSW,208,5.8,5.8,80,0.00,CLR,,0.00,WeatherDisplay:10.37,2013-09-01 08:29:00,
2013-09-01 03:34:00,79.7,73.0,29.70,WSW,250,8.1,8.1,80,0.00,CLR,,0.00,WeatherDisplay:10.37,2013-09-01 08:34:00,
2013-09-01 03:39:00,79.6,73.3,29.70,West,275,5.8,5.8,81,0.00,CLR,,0.00,WeatherDisplay:10.37,2013-09-01 08:39:00,
2013-09-01 03:44:00,79.5,73.2,29.70,SW,221,4.6,4.6,81,0.00,CLR,,0.00,WeatherDisplay:10.37,2013-09-01 08:44:00,
2013-09-01 03:49:00,79.3,73.0,29.71,WSW,246,6.9,6.9,81,0.00,CLR,,0.00,WeatherDisplay:10.37,2013-09-01 08:49:00,
2013-09-01 03:54:00,79.2,73.2,29.71,WSW,257,6.9,6.9,82,0.00,CLR,,0.00,WeatherDisplay:10.37,2013-09-01 08:54:00,
2013-09-01 03:59:00,79.0,73.0,29.71,SW,221,4.0,4.0,82,0.00,CLR,,0.00,WeatherDisplay:10.37,2013-09-01 08:59:00,
2013-09-01 04:04:00,78.8,72.8,29.71,SSW,204,5.8,5.8,82,0.00,CLR,,0.00,WeatherDisplay:10.37,2013-09-01 09:04:00,
2013-09-01 04:09:00,78.7,73.1,29.71,SW,231,3.5,3.5,83,0.00,CLR,,0.00,WeatherDisplay:10.37,2013-09-01 09:09:00,
2013-09-01 04:14:00,78.6,73.0,29.71,SW,228,4.0,4.0,83,0.00,CLR,,0.00,WeatherDisplay:10.37,2013-09-01 09:14:00,
2013-09-01 04:19:00,78.4,72.8,29.71,WSW,250,5.8,5.8,83,0.00,CLR,,0.00,WeatherDisplay:10.37,2013-09-01 09:19:00,
2013-09-01 04:24:00,78.3,72.7,29.71,WSW,238,5.8,5.8,83,0.00,CLR,,0.00,WeatherDisplay:10.37,2013-09-01 09:24:00,
2013-09-01 04:29:00,78.3,73.1,29.71,SSW,209,6.9,6.9,84,0.00,CLR,,0.00,WeatherDisplay:10.37,2013-09-01 09:29:00,
2013-09-01 04:34:00,78.2,73.0,29.72,WSW,238,4.6,4.6,84,0.00,CLR,,0.00,WeatherDisplay:10.37,2013-09-01 09:34:00,
2013-09-01 04:39:00,78.1,72.9,29.72,WSW,249,3.5,3.5,84,0.00,CLR,,0.00,WeatherDisplay:10.37,2013-09-01 09:39:00,
2013-09-01 04:44:00,78.0,72.8,29.72,SSW,198,6.0,6.0,84,0.00,CLR,,0.00,WeatherDisplay:10.37,2013-09-01 09:44:00,
2013-09-01 04:49:00,77.9,73.0,29.72,SSW,206,7.0,7.0,85,0.00,CLR,,0.00,WeatherDisplay:10.37,2013-09-01 09:49:00,
2013-09-01 04:54:00,77.8,72.9,29.72,SSW,200,3.5,3.5,85,0.00,CLR,,0.00,WeatherDisplay:10.37,2013-09-01 09:54:00,
2013-09-01 04:59:00,77.8,72.9,29.72,SW,228,4.6,4.6,85,0.00,CLR,,0.00,WeatherDisplay:10.37,2013-09-01 09:59:00,
2013-09-01 05:04:00,77.7,72.8,29.72,WSW,237,3.5,3.5,85,0.00,CLR,,0.00,WeatherDisplay:10.37,2013-09-01 10:04:00,
2013-09-01 05:09:00,77.7,72.8,29.72,WSW,248,2.3,2.3,85,0.00,CLR,,0.00,WeatherDisplay:10.37,2013-09-01 10:09:00,
2013-09-01 05:14:00,77.7,72.8,29.72,SW,235,3.5,3.5,85,0.00,CLR,,0.00,WeatherDisplay:10.37,2013-09-01 10:14:00,
2013-09-01 05:19:00,77.6,72.7,29.72,SW,225,3.5,3.5,85,0.00,CLR,,0.00,WeatherDisplay:10.37,2013-09-01 10:19:00,
2013-09-01 05:24:00,77.6,73.1,29.73,West,265,0.0,0.0,86,0.00,CLR,,0.00,WeatherDisplay:10.37,2013-09-01 10:24:00,
2013-09-01 05:29:00,77.7,73.2,29.74,North,355,1.1,0.0,86,0.00,CLR,,0.00,WeatherDisplay:10.37,2013-09-01 10:29:00,
2013-09-01 05:34:00,77.9,73.4,29.75,NE,55,0.0,0.0,86,0.00,CLR,,0.00,WeatherDisplay:10.37,2013-09-01 10:34:00,
2013-09-01 05:39:00,77.8,71.9,29.75,NE,49,3.5,3.5,82,0.00,CLR,,0.00,WeatherDisplay:10.37,2013-09-01 10:39:00,
2013-09-01 05:44:00,77.0,71.1,29.75,NNE,33,1.1,1.1,82,0.00,CLR,,0.00,WeatherDisplay:10.37,2013-09-01 10:44:00,
2013-09-01 05:49:00,76.8,70.9,29.76,East,80,5.8,5.8,82,0.00,CLR,,0.00,WeatherDisplay:10.37,2013-09-01 10:49:00,
2013-09-01 05:54:00,76.3,70.4,29.76,ESE,115,3.5,3.5,82,0.00,CLR,,0.00,WeatherDisplay:10.37,2013-09-01 10:54:00,
2013-09-01 05:59:00,75.7,69.8,29.76,East,93,8.1,8.1,82,0.00,CLR,,0.00,WeatherDisplay:10.37,2013-09-01 10:59:00,
2013-09-01 06:04:00,75.2,69.7,29.76,East,86,3.5,3.5,83,0.00,CLR,,0.00,WeatherDisplay:10.37,2013-09-01 11:04:00,
2013-09-01 06:09:00,74.8,70.0,29.76,ESE,121,1.1,0.0,85,0.00,CLR,,0.00,WeatherDisplay:10.37,2013-09-01 11:09:00,
2013-09-01 06:14:00,74.5,69.7,29.76,East,90,3.5,3.5,85,0.00,CLR,,0.00,WeatherDisplay:10.37,2013-09-01 11:14:00,
2013-09-01 06:19:00,74.1,69.6,29.76,ESE,103,4.6,4.6,86,0.00,CLR,,0.00,WeatherDisplay:10.37,2013-09-01 11:19:00,
2013-09-01 06:24:00,73.9,69.8,29.76,East,90,3.5,3.5,87,0.00,CLR,,0.00,WeatherDisplay:10.37,2013-09-01 11:24:00,
2013-09-01 06:29:00,73.6,69.5,29.76,East,96,8.1,8.1,87,0.00,CLR,,0.00,WeatherDisplay:10.37,2013-09-01 11:29:00,
2013-09-01 06:34:00,73.4,69.6,29.76,ESE,112,4.6,4.6,88,0.00,CLR,,0.00,WeatherDisplay:10.37,2013-09-01 11:34:00,
2013-09-01 06:39:00,73.2,69.4,29.76,SE,128,5.0,5.0,88,0.00,CLR,,0.00,WeatherDisplay:10.37,2013-09-01 11:39:00,
2013-09-01 06:44:00,73.0,69.2,29.76,ESE,116,8.1,8.1,88,0.00,CLR,,0.00,WeatherDisplay:10.37,2013-09-01 11:44:00,
2013-09-01 06:49:00,72.9,69.1,29.76,South,178,4.6,4.6,88,0.00,CLR,,0.00,WeatherDisplay:10.37,2013-09-01 11:49:00,
2013-09-01 06:54:00,72.8,69.4,29.75,ESE,118,2.3,2.3,89,0.00,CLR,,0.00,WeatherDisplay:10.37,2013-09-01 11:54:00,
2013-09-01 06:59:00,72.7,69.3,29.74,ESE,118,2.3,2.3,89,0.01,RA,,0.02,WeatherDisplay:10.37,2013-09-01 11:59:00,
2013-09-01 07:04:00,72.5,69.4,29.75,NE,42,4.6,4.6,90,0.04,RA,,0.04,WeatherDisplay:10.37,2013-09-01 12:04:00,
2013-09-01 07:09:00,72.2,69.1,29.76,WSW,245,2.3,2.3,90,0.05,RA,,0.05,WeatherDisplay:10.37,2013-09-01 12:09:00,
2013-09-01 07:14:00,72.0,69.2,29.79,WSW,241,5.8,5.8,91,0.08,RA,,0.09,WeatherDisplay:10.37,2013-09-01 12:14:00,
2013-09-01 07:19:00,71.7,68.9,29.81,SSW,210,15.0,15.0,91,0.21,RA,,0.27,WeatherDisplay:10.37,2013-09-01 12:19:00,
2013-09-01 09:32:00,72.0,70.8,29.78,SW,223,0.0,0.0,96,0.00,CLR,,0.74,WeatherDisplay:10.37,2013-09-01 14:32:00,
2013-09-01 09:37:00,72.1,70.9,29.78,SW,229,3.5,3.5,96,0.00,CLR,,0.74,WeatherDisplay:10.37,2013-09-01 14:37:00,
2013-09-01 09:42:00,72.2,71.0,29.78,SW,230,0.0,0.0,96,0.00,CLR,,0.74,WeatherDisplay:10.37,2013-09-01 14:42:00,
2013-09-01 09:47:00,72.2,71.0,29.79,SSW,198,4.6,4.6,96,0.00,CLR,,0.74,WeatherDisplay:10.37,2013-09-01 14:47:00,
2013-09-01 09:52:00,72.3,71.1,29.79,SSW,203,12.7,12.7,96,0.00,CLR,,0.74,WeatherDisplay:10.37,2013-09-01 14:52:00,
2013-09-01 09:57:00,72.4,71.2,29.79,South,189,8.0,8.0,96,0.00,CLR,,0.74,WeatherDisplay:10.37,2013-09-01 14:57:00,
2013-09-01 10:02:00,72.5,71.3,29.78,WSW,248,8.1,8.1,96,0.00,CLR,,0.74,WeatherDisplay:10.37,2013-09-01 15:02:00,
2013-09-01 10:07:00,72.6,71.7,29.79,SSW,212,6.9,6.9,97,0.00,CLR,,0.74,WeatherDisplay:10.37,2013-09-01 15:07:00,
2013-09-01 10:12:00,72.6,71.4,29.79,WNW,290,2.3,2.3,96,0.00,CLR,,0.74,WeatherDisplay:10.37,2013-09-01 15:12:00,
2013-09-01 10:17:00,72.8,71.6,29.80,SW,216,6.9,6.9,96,0.00,CLR,,0.74,WeatherDisplay:10.37,2013-09-01 15:17:00,
2013-09-01 10:22:00,72.8,71.6,29.80,South,188,9.2,9.2,96,0.00,CLR,,0.74,WeatherDisplay:10.37,2013-09-01 15:22:00,
2013-09-01 10:27:00,72.9,71.7,29.80,SSW,200,6.9,6.9,96,0.00,CLR,,0.74,WeatherDisplay:10.37,2013-09-01 15:27:00,
2013-09-01 10:32:00,72.9,71.7,29.80,SW,226,2.3,2.3,96,0.00,CLR,,0.74,WeatherDisplay:10.37,2013-09-01 15:32:00,
2013-09-01 10:37:00,73.0,72.1,29.80,SW,220,5.8,5.8,97,0.00,CLR,,0.74,WeatherDisplay:10.37,2013-09-01 15:37:00,
2013-09-01 10:42:00,73.1,72.2,29.80,SW,225,1.1,0.0,97,0.00,CLR,,0.74,WeatherDisplay:10.37,2013-09-01 15:42:00,
2013-09-01 10:47:00,73.2,72.3,29.80,SW,236,6.9,6.9,97,0.00,CLR,,0.74,WeatherDisplay:10.37,2013-09-01 15:47:00,
2013-09-01 10:52:00,73.3,72.4,29.81,SW,221,4.6,4.6,97,0.00,CLR,,0.74,WeatherDisplay:10.37,2013-09-01 15:52:00,
2013-09-01 10:57:00,73.5,72.6,29.81,SSW,208,3.5,3.5,97,0.00,CLR,,0.74,WeatherDisplay:10.37,2013-09-01 15:57:00,
2013-09-01 11:02:00,73.7,72.8,29.82,SW,222,6.0,6.0,97,0.00,CLR,,0.74,WeatherDisplay:10.37,2013-09-01 16:02:00,
2013-09-01 11:07:00,74.1,73.2,29.82,SW,225,4.0,4.0,97,0.00,CLR,,0.74,WeatherDisplay:10.37,2013-09-01 16:07:00,
2013-09-01 11:12:00,74.3,73.4,29.82,WSW,238,3.0,3.0,97,0.00,CLR,,0.74,WeatherDisplay:10.37,2013-09-01 16:12:00,
2013-09-01 11:17:00,74.3,73.1,29.82,SW,233,8.1,8.1,96,0.00,CLR,,0.74,WeatherDisplay:10.37,2013-09-01 16:17:00,
2013-09-01 11:22:00,74.1,72.9,29.82,SW,225,9.2,9.2,96,0.00,CLR,,0.74,WeatherDisplay:10.37,2013-09-01 16:22:00,
2013-09-01 11:27:00,74.0,72.8,29.82,South,190,5.8,5.8,96,0.00,CLR,,0.74,WeatherDisplay:10.37,2013-09-01 16:27:00,
2013-09-01 11:32:00,74.0,72.8,29.82,SW,224,9.2,9.2,96,0.00,CLR,,0.74,WeatherDisplay:10.37,2013-09-01 16:32:00,
2013-09-01 11:38:00,74.1,72.9,29.82,SW,217,8.0,8.0,96,0.00,CLR,,0.74,WeatherDisplay:10.37,2013-09-01 16:38:00,
2013-09-01 11:43:00,74.2,73.0,29.81,SW,229,9.2,9.2,96,0.00,CLR,,0.74,WeatherDisplay:10.37,2013-09-01 16:43:00,
2013-09-01 11:48:00,74.4,73.5,29.81,West,274,11.5,11.5,97,0.00,CLR,,0.74,WeatherDisplay:10.37,2013-09-01 16:48:00,
2013-09-01 11:53:00,74.4,73.2,29.80,SW,227,8.1,8.1,96,0.00,CLR,,0.74,WeatherDisplay:10.37,2013-09-01 16:53:00,
2013-09-01 11:58:00,74.5,73.3,29.80,South,175,16.1,16.1,96,0.00,CLR,,0.74,WeatherDisplay:10.37,2013-09-01 16:58:00,
2013-09-01 12:03:00,74.6,73.4,29.80,West,259,6.9,6.9,96,0.00,CLR,,0.74,WeatherDisplay:10.37,2013-09-01 17:03:00,
2013-09-01 12:08:00,74.9,73.7,29.80,West,266,10.4,10.4,96,0.00,CLR,,0.74,WeatherDisplay:10.37,2013-09-01 17:08:00,
2013-09-01 12:13:00,75.0,73.5,29.80,SW,221,5.8,5.8,95,0.00,CLR,,0.74,WeatherDisplay:10.37,2013-09-01 17:13:00,
2013-09-01 12:18:00,75.1,73.6,29.80,WSW,239,3.5,3.5,95,0.00,CLR,,0.74,WeatherDisplay:10.37,2013-09-01 17:18:00,
2013-09-01 12:23:00,75.1,73.6,29.79,NNE,16,3.5,3.5,95,0.00,CLR,,0.74,WeatherDisplay:10.37,2013-09-01 17:23:00,
2013-09-01 12:28:00,75.2,73.4,29.79,SE,146,6.9,6.9,94,0.00,CLR,,0.74,WeatherDisplay:10.37,2013-09-01 17:28:00,
2013-09-01 12:33:00,75.3,73.5,29.79,NW,307,3.5,3.5,94,0.00,CLR,,0.74,WeatherDisplay:10.37,2013-09-01 17:33:00,
2013-09-01 12:38:00,75.5,73.7,29.79,SSW,213,8.1,8.1,94,0.00,CLR,,0.74,WeatherDisplay:10.37,2013-09-01 17:38:00,
2013-09-01 12:43:00,75.7,73.8,29.79,WSW,244,3.5,3.5,94,0.00,CLR,,0.74,WeatherDisplay:10.37,2013-09-01 17:43:00,
2013-09-01 12:48:00,75.8,73.6,29.79,SW,223,6.9,6.9,93,0.00,CLR,,0.74,WeatherDisplay:10.37,2013-09-01 17:48:00,
2013-09-01 12:53:00,76.0,73.8,29.79,WSW,250,3.5,3.5,93,0.00,CLR,,0.74,WeatherDisplay:10.37,2013-09-01 17:53:00,
2013-09-01 12:58:00,76.0,73.5,29.79,WSW,246,5.8,5.8,92,0.00,CLR,,0.74,WeatherDisplay:10.37,2013-09-01 17:58:00,
2013-09-01 13:03:00,76.1,73.6,29.79,WSW,237,5.8,5.8,92,0.00,CLR,,0.74,WeatherDisplay:10.37,2013-09-01 18:03:00,
2013-09-01 13:08:00,76.0,73.2,29.80,SW,229,4.6,4.6,91,0.00,CLR,,0.74,WeatherDisplay:10.37,2013-09-01 18:08:00,
2013-09-01 13:13:00,76.1,73.3,29.79,West,264,11.5,11.5,91,0.00,CLR,,0.74,WeatherDisplay:10.37,2013-09-01 18:13:00,
2013-09-01 13:18:00,76.4,73.6,29.80,SW,233,9.2,9.2,91,0.00,CLR,,0.74,WeatherDisplay:10.37,2013-09-01 18:18:00,
2013-09-01 13:23:00,76.9,74.1,29.79,SW,226,11.5,11.5,91,0.00,CLR,,0.74,WeatherDisplay:10.37,2013-09-01 18:23:00,
2013-09-01 13:28:00,77.5,74.3,29.79,West,273,10.4,10.4,90,0.00,CLR,,0.74,WeatherDisplay:10.37,2013-09-01 18:28:00,
2013-09-01 13:33:00,78.2,75.4,29.79,NNE,28,4.6,4.6,91,0.00,CLR,,0.74,WeatherDisplay:10.37,2013-09-01 18:33:00,
2013-09-01 13:38:00,78.7,74.8,29.79,SW,234,8.0,8.0,88,0.00,CLR,,0.74,WeatherDisplay:10.37,2013-09-01 18:38:00,
2013-09-01 13:43:00,79.1,74.9,29.78,SW,226,8.1,8.1,87,0.00,CLR,,0.74,WeatherDisplay:10.37,2013-09-01 18:43:00,
2013-09-01 13:48:00,79.7,75.5,29.78,WSW,242,8.1,8.1,87,0.00,CLR,,0.74,WeatherDisplay:10.37,2013-09-01 18:48:00,
2013-09-01 13:53:00,79.9,75.0,29.78,South,175,5.8,5.8,85,0.00,CLR,,0.74,WeatherDisplay:10.37,2013-09-01 18:53:00,
2013-09-01 13:58:00,80.3,75.7,29.78,WSW,241,4.0,4.0,86,0.00,CLR,,0.74,WeatherDisplay:10.37,2013-09-01 18:58:00,
2013-09-01 14:03:00,80.6,75.3,29.78,WSW,246,4.0,4.0,84,0.00,CLR,,0.74,WeatherDisplay:10.37,2013-09-01 19:03:00,
2013-09-01 14:08:00,81.0,75.7,29.78,SSW,194,5.8,5.8,84,0.00,CLR,,0.74,WeatherDisplay:10.37,2013-09-01 19:08:00,
2013-09-01 14:13:00,81.3,76.0,29.78,SSW,212,11.5,11.5,84,0.00,CLR,,0.74,WeatherDisplay:10.37,2013-09-01 19:13:00,
2013-09-01 14:18:00,81.2,75.2,29.78,SW,220,11.5,11.5,82,0.00,CLR,,0.74,WeatherDisplay:10.37,2013-09-01 19:18:00,
2013-09-01 14:23:00,80.7,74.3,29.78,SW,235,8.1,8.1,81,0.00,CLR,,0.74,WeatherDisplay:10.37,2013-09-01 19:23:00,
2013-09-01 14:28:00,80.6,75.0,29.78,SSW,201,6.0,6.0,83,0.00,CLR,,0.74,WeatherDisplay:10.37,2013-09-01 19:28:00,
2013-09-01 14:33:00,80.8,75.2,29.77,SW,216,7.0,7.0,83,0.00,CLR,,0.74,WeatherDisplay:10.37,2013-09-01 19:33:00,
2013-09-01 14:38:00,80.9,74.9,29.78,SW,219,5.8,5.8,82,0.00,CLR,,0.74,WeatherDisplay:10.37,2013-09-01 19:38:00,
2013-09-01 14:43:00,80.7,74.7,29.78,South,177,5.0,5.0,82,0.00,CLR,,0.74,WeatherDisplay:10.37,2013-09-01 19:43:00,
2013-09-01 14:48:00,80.8,74.8,29.78,WNW,295,6.9,6.9,82,0.00,CLR,,0.74,WeatherDisplay:10.37,2013-09-01 19:48:00,
2013-09-01 14:53:00,81.2,75.5,29.78,SW,235,8.1,8.1,83,0.00,CLR,,0.74,WeatherDisplay:10.37,2013-09-01 19:53:00,
2013-09-01 14:58:00,81.6,75.9,29.78,WSW,242,5.0,5.0,83,0.00,CLR,,0.74,WeatherDisplay:10.37,2013-09-01 19:58:00,
2013-09-01 15:03:00,82.1,76.1,29.77,WSW,257,9.2,9.2,82,0.00,CLR,,0.74,WeatherDisplay:10.37,2013-09-01 20:03:00,
2013-09-01 15:08:00,82.2,75.4,29.77,West,263,10.4,10.4,80,0.00,CLR,,0.74,WeatherDisplay:10.37,2013-09-01 20:08:00,
2013-09-01 15:13:00,82.4,76.0,29.77,WSW,239,7.0,7.0,81,0.00,CLR,,0.74,WeatherDisplay:10.37,2013-09-01 20:13:00,
2013-09-01 15:18:00,82.7,76.6,29.76,SSW,197,8.1,8.1,82,0.00,CLR,,0.74,WeatherDisplay:10.37,2013-09-01 20:18:00,
2013-09-01 15:23:00,83.0,76.6,29.76,SW,216,10.0,10.0,81,0.00,CLR,,0.74,WeatherDisplay:10.37,2013-09-01 20:23:00,
2013-09-01 15:28:00,83.0,75.8,29.76,SSW,193,5.8,5.8,79,0.00,CLR,,0.74,WeatherDisplay:10.37,2013-09-01 20:28:00,
2013-09-01 15:33:00,83.1,75.5,29.76,SSW,207,9.0,9.0,78,0.00,CLR,,0.74,WeatherDisplay:10.37,2013-09-01 20:33:00,
2013-09-01 15:38:00,82.7,75.1,29.76,WSW,248,10.0,10.0,78,0.00,CLR,,0.74,WeatherDisplay:10.37,2013-09-01 20:38:00,
2013-09-01 15:43:00,81.8,74.3,29.76,WSW,240,9.2,9.2,78,0.00,CLR,,0.74,WeatherDisplay:10.37,2013-09-01 20:43:00,
2013-09-01 15:48:00,81.4,74.3,29.75,SSW,208,6.9,6.9,79,0.00,CLR,,0.74,WeatherDisplay:10.37,2013-09-01 20:48:00,
2013-09-01 15:53:00,81.1,74.0,29.75,WSW,238,8.1,8.1,79,0.00,CLR,,0.74,WeatherDisplay:10.37,2013-09-01 20:53:00,
2013-09-01 15:58:00,80.7,73.6,29.75,WSW,254,6.9,6.9,79,0.00,CLR,,0.74,WeatherDisplay:10.37,2013-09-01 20:58:00,
2013-09-01 16:03:00,80.6,74.2,29.75,WSW,245,3.5,3.5,81,0.00,CLR,,0.74,WeatherDisplay:10.37,2013-09-01 21:03:00,
2013-09-01 16:08:00,80.6,74.6,29.75,SSW,209,5.0,5.0,82,0.00,CLR,,0.74,WeatherDisplay:10.37,2013-09-01 21:08:00,
2013-09-01 16:13:00,80.4,74.0,29.75,WSW,252,6.9,6.9,81,0.00,CLR,,0.74,WeatherDisplay:10.37,2013-09-01 21:13:00,
2013-09-01 16:18:00,80.3,74.3,29.75,WSW,257,3.5,3.5,82,0.00,CLR,,0.74,WeatherDisplay:10.37,2013-09-01 21:18:00,
2013-09-01 16:23:00,80.4,74.8,29.75,WSW,240,4.6,4.6,83,0.00,CLR,,0.74,WeatherDisplay:10.37,2013-09-01 21:23:00,
2013-09-01 16:28:00,80.4,74.8,29.75,WSW,248,3.5,3.5,83,0.00,CLR,,0.74,WeatherDisplay:10.37,2013-09-01 21:28:00,
2013-09-01 16:33:00,80.7,75.4,29.75,WSW,258,3.5,3.5,84,0.00,CLR,,0.74,WeatherDisplay:10.37,2013-09-01 21:33:00,
2013-09-01 16:38:00,81.0,76.1,29.75,WSW,253,5.0,5.0,85,0.00,CLR,,0.74,WeatherDisplay:10.37,2013-09-01 21:38:00,
2013-09-01 16:43:00,81.6,76.3,29.75,SSW,196,6.0,6.0,84,0.00,CLR,,0.74,WeatherDisplay:10.37,2013-09-01 21:43:00,
2013-09-01 16:48:00,81.7,75.3,29.75,South,186,5.8,5.8,81,0.00,CLR,,0.74,WeatherDisplay:10.37,2013-09-01 21:48:00,
2013-09-01 16:53:00,81.6,75.6,29.74,WSW,247,5.8,5.8,82,0.00,CLR,,0.74,WeatherDisplay:10.37,2013-09-01 21:53:00,
2013-09-01 16:59:00,81.4,75.0,29.74,SW,224,5.0,5.0,81,0.00,CLR,,0.74,WeatherDisplay:10.37,2013-09-01 21:59:00,
2013-09-01 17:04:00,81.1,75.1,29.74,WSW,244,4.6,4.6,82,0.00,CLR,,0.74,WeatherDisplay:10.37,2013-09-01 22:04:00,
2013-09-01 17:09:00,81.0,75.0,29.75,SW,227,3.5,3.5,82,0.00,CLR,,0.74,WeatherDisplay:10.37,2013-09-01 22:09:00,
2013-09-01 17:14:00,80.8,75.2,29.75,WSW,246,5.8,5.8,83,0.00,CLR,,0.74,WeatherDisplay:10.37,2013-09-01 22:14:00,
2013-09-01 17:19:00,80.7,75.4,29.74,SW,230,3.5,3.5,84,0.00,CLR,,0.74,WeatherDisplay:10.37,2013-09-01 22:19:00,
2013-09-01 17:24:00,80.9,75.6,29.74,SW,220,9.2,9.2,84,0.00,CLR,,0.74,WeatherDisplay:10.37,2013-09-01 22:24:00,
2013-09-01 17:29:00,81.2,75.9,29.74,WSW,242,6.9,6.9,84,0.00,CLR,,0.74,WeatherDisplay:10.37,2013-09-01 22:29:00,
2013-09-01 17:34:00,81.4,76.1,29.75,WSW,257,3.5,3.5,84,0.00,CLR,,0.74,WeatherDisplay:10.37,2013-09-01 22:34:00,
2013-09-01 17:39:00,81.9,76.6,29.75,WSW,248,4.6,4.6,84,0.00,CLR,,0.74,WeatherDisplay:10.37,2013-09-01 22:39:00,
2013-09-01 17:44:00,82.3,76.6,29.75,WSW,252,4.6,4.6,83,0.00,CLR,,0.74,WeatherDisplay:10.37,2013-09-01 22:44:00,
2013-09-01 17:49:00,82.4,76.3,29.75,SW,225,4.6,4.6,82,0.00,CLR,,0.74,WeatherDisplay:10.37,2013-09-01 22:49:00,
2013-09-01 17:54:00,82.2,75.4,29.75,SW,227,5.8,5.8,80,0.00,CLR,,0.74,WeatherDisplay:10.37,2013-09-01 22:54:00,
2013-09-01 17:59:00,82.1,75.7,29.74,SSW,212,3.5,3.5,81,0.00,CLR,,0.74,WeatherDisplay:10.37,2013-09-01 22:59:00,
2013-09-01 18:04:00,81.7,75.3,29.74,SSW,206,2.3,2.3,81,0.00,CLR,,0.74,WeatherDisplay:10.37,2013-09-01 23:04:00,
2013-09-01 18:09:00,81.2,75.2,29.74,SSW,210,3.5,3.5,82,0.00,CLR,,0.74,WeatherDisplay:10.37,2013-09-01 23:09:00,
2013-09-01 18:14:00,80.7,75.1,29.74,SW,225,3.5,3.5,83,0.00,CLR,,0.74,WeatherDisplay:10.37,2013-09-01 23:14:00,
2013-09-01 18:19:00,80.4,74.8,29.74,SSW,206,1.1,1.1,83,0.00,CLR,,0.74,WeatherDisplay:10.37,2013-09-01 23:19:00,
2013-09-01 18:24:00,80.3,75.0,29.74,SSW,207,0.0,0.0,84,0.00,CLR,,0.74,WeatherDisplay:10.37,2013-09-01 23:24:00,
2013-09-01 18:29:00,80.2,75.3,29.74,SSW,196,1.1,1.1,85,0.00,CLR,,0.74,WeatherDisplay:10.37,2013-09-01 23:29:00,
2013-09-01 18:34:00,80.1,75.2,29.74,SW,233,2.3,2.3,85,0.00,CLR,,0.74,WeatherDisplay:10.37,2013-09-01 23:34:00,
2013-09-01 18:39:00,79.8,75.2,29.73,SSW,209,3.5,3.5,86,0.00,CLR,,0.74,WeatherDisplay:10.37,2013-09-01 23:39:00,
2013-09-01 18:44:00,79.7,75.1,29.74,SW,228,4.6,4.6,86,0.00,CLR,,0.74,WeatherDisplay:10.37,2013-09-01 23:44:00,
2013-09-01 18:49:00,79.5,74.9,29.75,SW,223,8.1,8.1,86,0.00,CLR,,0.74,WeatherDisplay:10.37,2013-09-01 23:49:00,
2013-09-01 18:54:00,79.3,75.1,29.76,WSW,257,3.5,3.5,87,0.00,CLR,,0.74,WeatherDisplay:10.37,2013-09-01 23:54:00,
2013-09-01 18:59:00,79.3,75.1,29.76,SW,228,3.5,3.5,87,0.00,CLR,,0.74,WeatherDisplay:10.37,2013-09-01 23:59:00,
2013-09-01 19:04:00,79.3,75.1,29.76,WSW,252,3.5,3.5,87,0.00,CLR,,0.74,WeatherDisplay:10.37,2013-09-02 00:04:00,
2013-09-01 19:09:00,79.3,75.1,29.76,SW,215,2.3,2.3,87,0.00,CLR,,0.74,WeatherDisplay:10.37,2013-09-02 00:09:00,
2013-09-01 19:14:00,79.3,75.1,29.76,SW,217,2.3,2.3,87,0.00,CLR,,0.74,WeatherDisplay:10.37,2013-09-02 00:14:00,
2013-09-01 19:19:00,79.1,74.9,29.77,West,265,2.3,2.3,87,0.00,CLR,,0.74,WeatherDisplay:10.37,2013-09-02 00:19:00,
2013-09-01 19:24:00,79.1,74.9,29.76,SW,234,2.3,0.0,87,0.00,CLR,,0.74,WeatherDisplay:10.37,2013-09-02 00:24:00,
2013-09-01 19:29:00,78.9,74.7,29.76,SSW,207,3.5,3.5,87,0.00,CLR,,0.74,WeatherDisplay:10.37,2013-09-02 00:29:00,
2013-09-01 19:34:00,78.7,74.5,29.77,WSW,250,4.6,4.6,87,0.00,CLR,,0.74,WeatherDisplay:10.37,2013-09-02 00:34:00,
2013-09-01 19:39:00,78.5,74.3,29.77,SW,232,3.5,3.5,87,0.00,CLR,,0.74,WeatherDisplay:10.37,2013-09-02 00:39:00,
2013-09-01 19:44:00,78.4,74.2,29.77,WSW,238,3.5,3.5,87,0.00,CLR,,0.74,WeatherDisplay:10.37,2013-09-02 00:44:00,
2013-09-01 19:49:00,78.2,74.0,29.77,WSW,248,4.0,4.0,87,0.00,CLR,,0.74,WeatherDisplay:10.37,2013-09-02 00:49:00,
2013-09-01 19:54:00,78.1,73.9,29.77,WSW,240,2.3,2.3,87,0.00,CLR,,0.74,WeatherDisplay:10.37,2013-09-02 00:54:00,
2013-09-01 19:59:00,78.0,73.8,29.77,SW,218,1.1,1.1,87,0.00,CLR,,0.74,WeatherDisplay:10.37,2013-09-02 00:59:00,
2013-09-01 20:04:00,77.9,73.7,29.77,SSW,211,2.3,2.3,87,0.00,CLR,,0.74,WeatherDisplay:10.37,2013-09-02 01:04:00,
2013-09-01 20:09:00,77.8,73.6,29.77,SSW,211,1.1,0.0,87,0.00,CLR,,0.74,WeatherDisplay:10.37,2013-09-02 01:09:00,
2013-09-01 20:14:00,77.8,73.6,29.77,SSW,211,0.0,0.0,87,0.00,CLR,,0.74,WeatherDisplay:10.37,2013-09-02 01:14:00,
2013-09-01 20:19:00,77.6,73.4,29.78,SSW,211,0.0,0.0,87,0.00,CLR,,0.74,WeatherDisplay:10.37,2013-09-02 01:19:00,
2013-09-01 20:24:00,77.5,73.7,29.78,SSW,211,0.0,0.0,88,0.00,CLR,,0.74,WeatherDisplay:10.37,2013-09-02 01:24:00,
2013-09-01 20:29:00,77.4,73.6,29.78,SSW,211,0.0,0.0,88,0.00,CLR,,0.74,WeatherDisplay:10.37,2013-09-02 01:29:00,
2013-09-01 20:34:00,77.2,73.4,29.79,SSW,211,0.0,0.0,88,0.00,CLR,,0.74,WeatherDisplay:10.37,2013-09-02 01:34:00,
2013-09-01 20:39:00,77.1,73.3,29.79,SSW,211,0.0,0.0,88,0.00,CLR,,0.74,WeatherDisplay:10.37,2013-09-02 01:39:00,
2013-09-01 20:44:00,76.9,73.4,29.79,SSW,211,0.0,0.0,89,0.00,CLR,,0.74,WeatherDisplay:10.37,2013-09-02 01:44:00,
2013-09-01 20:49:00,76.7,73.2,29.79,SSW,211,0.0,0.0,89,0.00,CLR,,0.74,WeatherDisplay:10.37,2013-09-02 01:49:00,
2013-09-01 20:54:00,76.5,73.3,29.79,SSW,211,0.0,0.0,90,0.00,CLR,,0.74,WeatherDisplay:10.37,2013-09-02 01:54:00,
2013-09-01 20:59:00,76.2,73.1,29.79,SSW,211,0.0,0.0,90,0.00,CLR,,0.74,WeatherDisplay:10.37,2013-09-02 01:59:00,
2013-09-01 21:04:00,76.1,73.0,29.79,SSW,211,0.0,0.0,90,0.00,CLR,,0.74,WeatherDisplay:10.37,2013-09-02 02:04:00,
2013-09-01 21:09:00,75.9,72.8,29.79,SSW,211,0.0,0.0,90,0.00,CLR,,0.74,WeatherDisplay:10.37,2013-09-02 02:09:00,
2013-09-01 21:14:00,75.8,73.0,29.79,SSW,211,0.0,0.0,91,0.00,CLR,,0.74,WeatherDisplay:10.37,2013-09-02 02:14:00,
2013-09-01 21:19:00,75.7,72.9,29.79,SSW,211,0.0,0.0,91,0.00,CLR,,0.74,WeatherDisplay:10.37,2013-09-02 02:19:00,
2013-09-01 21:24:00,75.7,73.2,29.79,SSW,211,0.0,0.0,92,0.00,CLR,,0.74,WeatherDisplay:10.37,2013-09-02 02:24:00,
2013-09-01 21:29:00,75.5,73.0,29.80,SSW,211,0.0,0.0,92,0.00,CLR,,0.74,WeatherDisplay:10.37,2013-09-02 02:29:00,
2013-09-01 21:34:00,75.4,72.9,29.79,SSW,211,0.0,0.0,92,0.00,CLR,,0.74,WeatherDisplay:10.37,2013-09-02 02:34:00,
2013-09-01 21:39:00,75.2,72.7,29.79,SW,225,3.5,3.5,92,0.00,CLR,,0.74,WeatherDisplay:10.37,2013-09-02 02:39:00,
2013-09-01 21:44:00,75.1,72.6,29.79,SW,225,0.0,0.0,92,0.00,CLR,,0.74,WeatherDisplay:10.37,2013-09-02 02:44:00,
2013-09-01 21:49:00,75.0,72.8,29.79,SW,223,1.1,1.1,93,0.00,CLR,,0.74,WeatherDisplay:10.37,2013-09-02 02:49:00,
2013-09-01 21:54:00,74.9,72.7,29.79,SW,223,1.1,0.0,93,0.00,CLR,,0.74,WeatherDisplay:10.37,2013-09-02 02:54:00,
2013-09-01 21:59:00,74.8,72.6,29.79,SW,223,1.1,1.1,93,0.00,CLR,,0.74,WeatherDisplay:10.37,2013-09-02 02:59:00,
2013-09-01 22:04:00,74.7,72.5,29.79,SSW,206,2.3,2.3,93,0.00,CLR,,0.74,WeatherDisplay:10.37,2013-09-02 03:04:00,
2013-09-01 22:09:00,74.6,72.4,29.79,SW,229,3.0,3.0,93,0.00,CLR,,0.74,WeatherDisplay:10.37,2013-09-02 03:09:00,
2013-09-01 22:14:00,74.5,72.3,29.79,SW,233,3.0,3.0,93,0.00,CLR,,0.74,WeatherDisplay:10.37,2013-09-02 03:14:00,
2013-09-01 22:19:00,74.5,72.3,29.79,SSW,198,2.3,2.3,93,0.00,CLR,,0.74,WeatherDisplay:10.37,2013-09-02 03:19:00,
2013-09-01 22:24:00,74.4,72.2,29.79,SW,214,2.3,2.3,93,0.00,CLR,,0.74,WeatherDisplay:10.37,2013-09-02 03:24:00,
2013-09-01 22:29:00,74.3,72.1,29.79,WSW,248,1.1,1.1,93,0.00,CLR,,0.74,WeatherDisplay:10.37,2013-09-02 03:29:00,
2013-09-01 22:34:00,74.3,72.1,29.79,WSW,248,0.0,0.0,93,0.00,CLR,,0.74,WeatherDisplay:10.37,2013-09-02 03:34:00,
2013-09-01 22:39:00,74.2,72.4,29.79,WSW,248,0.0,0.0,94,0.00,CLR,,0.74,WeatherDisplay:10.37,2013-09-02 03:39:00,
2013-09-01 22:45:00,74.2,72.4,29.80,WSW,247,0.0,0.1,94,0.00,CLR,,0.74,WeatherDisplay:10.37,2013-09-02 03:45:00,
2013-09-01 22:50:00,74.2,72.4,29.80,WSW,247,0.0,0.0,94,0.00,CLR,,0.74,WeatherDisplay:10.37,2013-09-02 03:50:00,
2013-09-01 22:55:00,74.2,72.4,29.80,WSW,247,0.0,0.0,94,0.00,CLR,,0.74,WeatherDisplay:10.37,2013-09-02 03:55:00,
2013-09-01 23:00:00,74.2,72.3,29.80,WSW,247,0.0,0.0,94,0.00,CLR,,0.74,WeatherDisplay:10.37,2013-09-02 04:00:00,
2013-09-01 23:01:00,74.2,72.0,29.80,WSW,247,0.0,0.0,93,0.00,CLR,,0.74,WeatherDisplay:10.37,2013-09-02 04:01:00,
2013-09-01 23:02:00,74.1,71.9,29.80,WSW,247,0.0,0.0,93,0.00,CLR,,0.74,WeatherDisplay:10.37,2013-09-02 04:02:00,
2013-09-01 23:07:00,73.9,71.7,29.80,WSW,247,0.0,0.0,93,0.00,CLR,,0.74,WeatherDisplay:10.37,2013-09-02 04:07:00,
2013-09-01 23:12:00,73.9,72.1,29.80,WSW,247,0.0,0.0,94,0.00,CLR,,0.74,WeatherDisplay:10.37,2013-09-02 04:12:00,
2013-09-01 23:17:00,73.9,72.1,29.80,WSW,247,0.0,0.0,94,0.00,CLR,,0.74,WeatherDisplay:10.37,2013-09-02 04:17:00,
2013-09-01 23:22:00,73.8,72.0,29.80,WSW,247,0.0,0.0,94,0.00,CLR,,0.74,WeatherDisplay:10.37,2013-09-02 04:22:00,
2013-09-01 23:27:00,73.6,71.8,29.80,WSW,247,0.0,0.0,94,0.00,CLR,,0.74,WeatherDisplay:10.37,2013-09-02 04:27:00,
2013-09-01 23:32:00,73.5,71.7,29.80,WSW,247,0.0,0.0,94,0.00,CLR,,0.74,WeatherDisplay:10.37,2013-09-02 04:32:00,
2013-09-01 23:37:00,73.5,71.7,29.80,WSW,247,0.0,0.0,94,0.00,CLR,,0.74,WeatherDisplay:10.37,2013-09-02 04:37:00,
2013-09-01 23:42:00,73.5,71.7,29.80,WSW,247,0.0,0.0,94,0.00,CLR,,0.74,WeatherDisplay:10.37,2013-09-02 04:42:00,
2013-09-01 23:47:00,73.4,71.6,29.80,WSW,247,0.0,0.0,94,0.00,CLR,,0.74,WeatherDisplay:10.37,2013-09-02 04:47:00,
2013-09-01 23:52:00,73.4,71.6,29.80,WSW,247,0.0,0.0,94,0.00,CLR,,0.74,WeatherDisplay:10.37,2013-09-02 04:52:00,
2013-09-01 23:57:00,73.3,71.5,29.79,WSW,247,0.0,0.0,94,0.00,CLR,,0.74,WeatherDisplay:10.37,2013-09-02 04:57:00,